Location: Milevsko
(49.4500°N, 14.3670°E)
Time: 14:44:17
(UTC+01:00)

ISS - Pass Details

Date: 15 November 2025
Orbit: 416 x 420 km, 51.6° (Epoch: 09 December)

Event Time Altitude Azimuth Distance (km) Brightness Sun altitude
Rises 18:06:55 0° 227° (SW) 2,359 1.0 -17.2°
Reaches altitude 10° 18:09:05 10° 220° (SW) 1,497 -0.3 -17.6°
Maximum altitude 18:12:15 40° 149° (SSE) 635 -3.1 -18.1°
Enters shadow 18:12:23 40° 143° (SE) 637 -3.1 -18.1°
